Location: Hradec Kralove
(50.2170°N, 15.8330°E)
Time: 12:30:47
(UTC+01:00)

ISS - Visible Passes

Search period start: 09 December 2023 00:00
Search period end: 19 December 2023 00:00
Orbit: 415 x 417 km, 51.6° (Epoch: 09 December)

Date Brightness Start Highest point End Pass type
(mag) Time Alt. Az. Time Alt. Az. Time Alt. Az.
15 Dec -0.6 06:58:14 10° S 07:00:22 16° SE 07:02:30 10° E visible
16 Dec -0.1 06:11:05 10° SE 06:11:36 10° SE 06:12:08 10° SE visible
17 Dec -1.8 06:55:43 10° SSW 06:58:43 31° SSE 07:01:44 10° E visible
18 Dec -1.2 06:07:09 10° SSW 06:09:47 22° SE 06:12:24 10° E visible
